When you browse on this site, cookies collect data to enhance your experience and personalize the content and advertising you see.
Visit our Privacy Policy to learn more. By continuing to use the site, you agree to this use of cookies and data.
  • en Belgique
  • Liste des pays
  • À 7 jours
  • Température de l'eau
  • Carte météo
  • Widgets météo
  • user-avatar
    Se connecter

    Météo par heure à Francistown

    Ce jour, 2 Juin, Mardi

    Heure Température Précipitation Vent Pression Humidité
    00:00 +12°C° 0 mm 3 m/s 681 mmHg 66%
    01:00 +12°C° 0 mm 3 m/s 681 mmHg 70%
    02:00 +11°C° 0 mm 3 m/s 681 mmHg 75%
    03:00 +12°C° 0 mm 2 m/s 681 mmHg 79%
    04:00 +10°C° 0 mm 2 m/s 681 mmHg 83%
    05:00 +10°C° 0 mm 2 m/s 681 mmHg 87%
    06:00 +12°C° 0 mm 2 m/s 681 mmHg 83%
    07:00 +13°C° 0 mm 2 m/s 682 mmHg 79%
    08:00 +13°C° 0 mm 3 m/s 683 mmHg 73%
    09:00 +17°C° 0 mm 4 m/s 683 mmHg 60%
    10:00 +20°C° 0 mm 5 m/s 683 mmHg 47%
    11:00 +23°C° 0 mm 5 m/s 683 mmHg 34%
    12:00 +25°C° 0 mm 5 m/s 683 mmHg 29%
    13:00 +26°C° 0 mm 5 m/s 682 mmHg 25%
    14:00 +27°C° 0 mm 5 m/s 682 mmHg 21%
    15:00 +27°C° 0 mm 5 m/s 681 mmHg 23%
    16:00 +26°C° 0 mm 4 m/s 681 mmHg 25%
    17:00 +25°C° 0 mm 4 m/s 681 mmHg 27%
    18:00 +21°C° 0 mm 4 m/s 681 mmHg 34%
    19:00 +19°C° 0 mm 4 m/s 681 mmHg 42%
    20:00 +17°C° 0 mm 4 m/s 681 mmHg 50%
    21:00 +15°C° 0 mm 4 m/s 680 mmHg 54%
    22:00 +14°C° 0 mm 4 m/s 680 mmHg 59%
    23:00 +13°C° 0 mm 3 m/s 680 mmHg 63%

    Demain, 3 Juin, Mercredi

    Heure Température Précipitation Vent Pression Humidité
    00:00 +12°C° 0 mm 3 m/s 680 mmHg 68%
    01:00 +11°C° 0 mm 3 m/s 680 mmHg 72%
    02:00 +11°C° 0 mm 3 m/s 679 mmHg 77%
    03:00 +10°C° 0 mm 2 m/s 679 mmHg 79%
    04:00 +10°C° 0 mm 2 m/s 679 mmHg 81%
    05:00 +9°C° 0 mm 2 m/s 679 mmHg 84%
    06:00 +12°C° 0 mm 2 m/s 680 mmHg 78%
    07:00 +13°C° 0 mm 2 m/s 680 mmHg 72%
    08:00 +13°C° 0 mm 3 m/s 681 mmHg 66%
    09:00 +17°C° 0 mm 3 m/s 681 mmHg 54%
    10:00 +20°C° 0 mm 3 m/s 682 mmHg 42%
    11:00 +23°C° 0 mm 4 m/s 682 mmHg 30%
    12:00 +25°C° 0 mm 4 m/s 681 mmHg 27%
    13:00 +26°C° 0 mm 4 m/s 681 mmHg 23%
    14:00 +27°C° 0 mm 3 m/s 680 mmHg 20%
    15:00 +27°C° 0 mm 3 m/s 680 mmHg 21%
    16:00 +26°C° 0 mm 3 m/s 679 mmHg 21%
    17:00 +25°C° 0 mm 4 m/s 679 mmHg 21%
    18:00 +22°C° 0 mm 4 m/s 679 mmHg 28%
    19:00 +19°C° 0 mm 4 m/s 679 mmHg 35%
    20:00 +17°C° 0 mm 4 m/s 679 mmHg 42%
    21:00 +15°C° 0 mm 4 m/s 679 mmHg 47%
    22:00 +14°C° 0 mm 3 m/s 679 mmHg 52%
    23:00 +13°C° 0 mm 3 m/s 679 mmHg 57%

    Après-demain, 4 Juin, Jeudi

    Heure Température Précipitation Vent Pression Humidité
    00:00 +13°C° 0 mm 2 m/s 679 mmHg 60%
    01:00 +12°C° 0 mm 2 m/s 678 mmHg 62%
    02:00 +12°C° 0 mm 2 m/s 678 mmHg 65%
    03:00 +10°C° 0 mm 2 m/s 678 mmHg 67%
    04:00 +10°C° 0 mm 2 m/s 678 mmHg 68%
    05:00 +10°C° 0 mm 2 m/s 679 mmHg 70%
    06:00 +12°C° 0 mm 2 m/s 679 mmHg 66%
    07:00 +13°C° 0 mm 2 m/s 680 mmHg 62%
    08:00 +14°C° 0 mm 2 m/s 680 mmHg 58%
    09:00 +17°C° 0 mm 3 m/s 681 mmHg 48%
    10:00 +20°C° 0 mm 4 m/s 681 mmHg 37%
    11:00 +25°C° 0 mm 5 m/s 682 mmHg 27%
    12:00 +26°C° 0 mm 5 m/s 681 mmHg 25%
    13:00 +26°C° 0 mm 5 m/s 681 mmHg 23%
    14:00 +27°C° 0 mm 5 m/s 680 mmHg 21%
    15:00 +26°C° 0 mm 5 m/s 680 mmHg 24%
    16:00 +24°C° 0 mm 6 m/s 680 mmHg 26%
    17:00 +23°C° 0 mm 6 m/s 679 mmHg 29%
    18:00 +21°C° 0 mm 6 m/s 679 mmHg 35%
    19:00 +19°C° 0 mm 5 m/s 680 mmHg 41%
    20:00 +17°C° 0 mm 4 m/s 680 mmHg 47%
    21:00 +15°C° 0 mm 4 m/s 680 mmHg 52%
    22:00 +14°C° 0 mm 4 m/s 680 mmHg 57%
    23:00 +13°C° 0 mm 4 m/s 680 mmHg 61%

    5 Juin, Vendredi

    Heure Température Précipitation Vent Pression Humidité
    00:00 +12°C° 0 mm 3 m/s 680 mmHg 67%
    01:00 +11°C° 0 mm 3 m/s 680 mmHg 72%
    02:00 +10°C° 0 mm 3 m/s 679 mmHg 78%
    03:00 +10°C° 0 mm 3 m/s 680 mmHg 83%
    04:00 +10°C° 0 mm 4 m/s 680 mmHg 88%
    05:00 +8°C° 0 mm 4 m/s 680 mmHg 92%
    06:00 +10°C° 0 mm 4 m/s 680 mmHg 88%
    07:00 +10°C° 0 mm 5 m/s 681 mmHg 84%
    08:00 +12°C° 0 mm 5 m/s 681 mmHg 80%
    09:00 +15°C° 0 mm 5 m/s 682 mmHg 69%
    10:00 +17°C° 0 mm 5 m/s 682 mmHg 58%
    11:00 +21°C° 0 mm 5 m/s 682 mmHg 47%
    12:00 +22°C° 0 mm 5 m/s 682 mmHg 42%
    13:00 +23°C° 0 mm 5 m/s 681 mmHg 37%
    14:00 +25°C° 0 mm 4 m/s 681 mmHg 31%
    15:00 +23°C° 0 mm 5 m/s 681 mmHg 32%
    16:00 +23°C° 0 mm 5 m/s 681 mmHg 33%
    17:00 +22°C° 0 mm 5 m/s 680 mmHg 34%
    18:00 +19°C° 0 mm 5 m/s 681 mmHg 41%
    19:00 +17°C° 0 mm 4 m/s 681 mmHg 49%
    20:00 +14°C° 0 mm 4 m/s 681 mmHg 56%
    21:00 +13°C° 0 mm 4 m/s 681 mmHg 60%
    22:00 +12°C° 0 mm 3 m/s 681 mmHg 65%
    23:00 +11°C° 0 mm 3 m/s 681 mmHg 70%

    6 Juin, Samedi

    Heure Température Précipitation Vent Pression Humidité
    00:00 +10°C° 0 mm 3 m/s 681 mmHg 76%
    01:00 +10°C° 0 mm 3 m/s 681 mmHg 82%
    02:00 +9°C° 0 mm 3 m/s 681 mmHg 89%
    03:00 +9°C° 0 mm 3 m/s 681 mmHg 90%
    04:00 +8°C° 0 mm 3 m/s 681 mmHg 91%
    05:00 +8°C° 0 mm 3 m/s 681 mmHg 92%
    06:00 +9°C° 0 mm 3 m/s 681 mmHg 89%
    07:00 +9°C° 0 mm 3 m/s 682 mmHg 86%
    08:00 +10°C° 0 mm 3 m/s 682 mmHg 83%
    09:00 +13°C° 0 mm 4 m/s 682 mmHg 68%
    10:00 +16°C° 0 mm 5 m/s 683 mmHg 54%
    11:00 +20°C° 0 mm 5 m/s 683 mmHg 40%
    12:00 +21°C° 0 mm 5 m/s 683 mmHg 35%
    13:00 +22°C° 0 mm 6 m/s 682 mmHg 30%
    14:00 +23°C° 0 mm 6 m/s 682 mmHg 25%
    15:00 +23°C° 0 mm 6 m/s 682 mmHg 26%
    16:00 +22°C° 0 mm 5 m/s 681 mmHg 28%
    17:00 +21°C° 0 mm 5 m/s 681 mmHg 30%
    18:00 +18°C° 0 mm 4 m/s 681 mmHg 38%
    19:00 +15°C° 0 mm 4 m/s 681 mmHg 46%
    20:00 +13°C° 0 mm 3 m/s 681 mmHg 54%
    21:00 +12°C° 0 mm 3 m/s 681 mmHg 63%
    22:00 +11°C° 0 mm 3 m/s 681 mmHg 72%
    23:00 +10°C° 0 mm 3 m/s 681 mmHg 81%

    7 Juin, Dimanche

    Heure Température Précipitation Vent Pression Humidité
    00:00 +10°C° 0 mm 3 m/s 681 mmHg 83%
    01:00 +9°C° 0 mm 3 m/s 681 mmHg 86%
    02:00 +9°C° 0 mm 2 m/s 681 mmHg 89%
    03:00 +9°C° 0 mm 2 m/s 681 mmHg 90%
    04:00 +8°C° 0 mm 2 m/s 681 mmHg 90%
    05:00 +8°C° 0 mm 2 m/s 681 mmHg 91%
    06:00 +9°C° 0 mm 3 m/s 681 mmHg 88%
    07:00 +10°C° 0 mm 4 m/s 682 mmHg 85%
    08:00 +11°C° 0 mm 4 m/s 682 mmHg 82%
    09:00 +14°C° 0 mm 5 m/s 682 mmHg 70%
    10:00 +16°C° 0 mm 5 m/s 683 mmHg 58%
    11:00 +20°C° 0 mm 5 m/s 683 mmHg 46%
    12:00 +21°C° 0 mm 5 m/s 683 mmHg 40%
    13:00 +22°C° 0 mm 5 m/s 682 mmHg 33%
    14:00 +23°C° 0 mm 5 m/s 682 mmHg 27%
    15:00 +22°C° 0 mm 5 m/s 681 mmHg 29%
    16:00 +22°C° 0 mm 5 m/s 681 mmHg 30%
    17:00 +21°C° 0 mm 5 m/s 681 mmHg 32%
    18:00 +18°C° 0 mm 4 m/s 681 mmHg 38%
    19:00 +15°C° 0 mm 4 m/s 681 mmHg 45%
    20:00 +12°C° 0 mm 3 m/s 681 mmHg 51%
    21:00 +12°C° 0 mm 3 m/s 681 mmHg 54%
    22:00 +11°C° 0 mm 3 m/s 681 mmHg 57%
    23:00 +10°C° 0 mm 2 m/s 681 mmHg 60%
    Voir plus